Lima, OH

7:12 AM EST on January 20, 2017 (GMT -0500)
Lima Allen County

Weather History for KAOH - January, 2014

Change the Weather History Date:

Monday, January 13, 2014

  Actual Average (KFDY) Record (KFDY)
Temperature  
Mean Temperature 45 °F -  
Max Temperature 48 °F 31 °F 63 °F (2013)
Min Temperature 41 °F 16 °F -13 °F (1977)
Degree Days  
Heating Degree Days 20    
Moisture  
Dew Point 36 °F    
Average Humidity 70    
Maximum Humidity 89    
Minimum Humidity 53    
Precipitation  
Precipitation 0.00 in - - ()
Sea Level Pressure  
Sea Level Pressure 29.71 in    
Wind  
Wind Speed 16 mph (SSW)    
Max Wind Speed 20 mph    
Max Gust Speed 30 mph    
Visibility 9 miles    
Events Rain    
Averages and records for this station are not official NWS values.
T = Trace of Precipitation, MM = Missing Value Source: NWS Daily Summary

Daily Weather History Graph

Daily Weather History Graph

Search for Another Location

Airport or City:

Trip Planner

Search our weather history database for the weather conditions in past years. The results will help you decide how hot, cold, wet, or windy it might be!

Date:

Astronomy

Jan. 13, 2014 Rise Set
Actual Time 7:58 AM EST 5:31 PM EST
Civil Twilight 7:28 AM EST 6:01 PM EST
Nautical Twilight 6:54 AM EST 6:35 PM EST
Astronomical Twilight 6:21 AM EST 7:08 PM EST
Moon 3:45 PM EST (1/13) 5:46 AM EST (1/13)
Length of Visible Light 10h 32m
Length of Day
9h 32m
Waxing Gibbous, 95% of the Moon is Illuminated
Jan 13
Waxing Gibbous
Jan 15
Full
Jan 24
Last Quarter
Jan 30
New
Feb 6
First Quarter

Hourly Weather History & Observations

Time (EST) Temp. Windchill Dew Point Humidity Pressure Visibility Wind Dir Wind Speed Gust Speed Precip Events Conditions
12:53 AM 43.0 °F 35.1 °F 30.0 °F 60% 29.82 in 10.0 mi SSW 17.3 mph 24.2 mph N/A   Clear
1:53 AM 43.0 °F 35.7 °F 30.0 °F 60% 29.82 in 10.0 mi SSW 15.0 mph 21.9 mph N/A   Clear
2:53 AM 43.0 °F 35.7 °F 28.9 °F 58% 29.81 in 10.0 mi South 15.0 mph 26.5 mph N/A   Clear
3:53 AM 43.0 °F 35.4 °F 28.9 °F 58% 29.78 in 10.0 mi South 16.1 mph 26.5 mph N/A   Clear
4:53 AM 45.0 °F 37.1 °F 28.9 °F 53% 29.76 in 10.0 mi SSW 19.6 mph 27.6 mph N/A   Clear
5:53 AM 44.1 °F 36.2 °F 30.0 °F 58% 29.75 in 10.0 mi SSW 18.4 mph 29.9 mph N/A   Clear
6:53 AM 45.0 °F 37.6 °F 30.0 °F 56% 29.73 in 10.0 mi SSW 17.3 mph 24.2 mph N/A   Clear
7:53 AM 46.0 °F 39.3 °F 30.0 °F 54% 29.73 in 10.0 mi SSW 16.1 mph 26.5 mph N/A   Clear
8:53 AM 45.0 °F 38.5 °F 30.9 °F 58% 29.70 in 10.0 mi SSW 13.8 mph 23.0 mph N/A   Clear
9:53 AM 46.0 °F 39.0 °F 32.0 °F 58% 29.70 in 10.0 mi South 17.3 mph 24.2 mph N/A   Scattered Clouds
10:53 AM 48.0 °F - 33.1 °F 56% 29.71 in 10.0 mi South 18.4 mph 24.2 mph N/A   Clear
11:53 AM 48.0 °F - 35.1 °F 61% 29.68 in 10.0 mi SSW 17.3 mph 26.5 mph N/A   Mostly Cloudy
12:53 PM 48.9 °F - 37.0 °F 64% 29.66 in 10.0 mi SSW 16.1 mph 24.2 mph N/A   Partly Cloudy
1:53 PM 48.9 °F - 39.0 °F 69% 29.65 in 10.0 mi SSW 15.0 mph - N/A   Overcast
2:15 PM 48.2 °F - 39.2 °F 71% 29.63 in 10.0 mi SSW 13.8 mph - N/A   Overcast
2:53 PM 48.9 °F - 39.9 °F 71% 29.64 in 10.0 mi SSW 12.7 mph 20.7 mph N/A   Overcast
3:53 PM 48.9 °F - 39.9 °F 71% 29.65 in 10.0 mi SSW 15.0 mph 20.7 mph N/A   Overcast
4:34 PM 46.4 °F 40.7 °F 42.8 °F 87% 29.65 in 2.5 mi SSW 12.7 mph - N/A Rain Light Rain
4:53 PM 46.9 °F - 43.0 °F 86% 29.67 in 4.0 mi SSW 13.8 mph - N/A Rain Light Rain
5:53 PM 46.9 °F - 43.0 °F 86% 29.67 in 10.0 mi SW 12.7 mph - N/A Rain Light Rain
6:26 PM 46.4 °F 40.4 °F 42.8 °F 87% 29.66 in 10.0 mi SW 13.8 mph - N/A   Overcast
6:53 PM 46.0 °F 41.0 °F 43.0 °F 89% 29.67 in 9.0 mi SSW 10.4 mph - N/A   Overcast
7:53 PM 46.0 °F 40.2 °F 41.0 °F 83% 29.69 in 10.0 mi SW 12.7 mph - N/A   Mostly Cloudy
8:53 PM 44.1 °F 38.6 °F 39.9 °F 85% 29.69 in 8.0 mi WSW 10.4 mph - N/A   Partly Cloudy
9:53 PM 43.0 °F 36.8 °F 39.0 °F 86% 29.71 in 9.0 mi West 11.5 mph - N/A   Clear
10:53 PM 42.1 °F 35.2 °F 36.0 °F 79% 29.72 in 10.0 mi West 12.7 mph - N/A   Scattered Clouds
11:53 PM 41.0 °F 33.9 °F 35.1 °F 79% 29.74 in 10.0 mi West 12.7 mph - N/A   Overcast